Location: Aalen
(48.8330°N, 10.1000°E)
Time: 11:55:16
(UTC+02:00)

Explorer 7 - Visible Passes

Search period start: 03 August 2021 00:00
Search period end: 13 August 2021 00:00
Orbit: 484 x 676 km, 50.3° (Epoch: 02 August)

Date Brightness Start Highest point End Pass type
(mag) Time Alt. Az. Time Alt. Az. Time Alt. Az.
04 Aug 9.0 04:12:18 10° SSE 04:13:56 12° SE 04:15:37 10° ESE visible
05 Aug 8.5 04:16:18 14° S 04:18:00 19° SE 04:20:45 10° E visible
06 Aug 7.9 04:20:23 19° S 04:22:06 28° SE 04:25:24 10° E visible
07 Aug 7.3 04:24:26 23° SSW 04:26:17 40° SSE 04:29:53 10° E visible
08 Aug 9.2 02:52:12 11° ESE 02:52:12 11° ESE 02:52:40 10° ESE visible
08 Aug 6.8 04:28:28 24° SW 04:30:30 56° SSE 04:34:15 10° ENE visible
09 Aug 8.7 02:56:12 17° ESE 02:56:12 17° ESE 02:57:39 10° E visible
09 Aug 6.5 04:32:28 22° WSW 04:34:46 75° SSE 04:38:36 10° ENE visible
10 Aug 8.2 03:00:11 24° ESE 03:00:11 24° ESE 03:02:15 10° E visible
10 Aug 6.5 04:36:27 19° WSW 04:39:05 88° N 04:42:56 10° ENE visible
11 Aug 7.7 03:04:09 33° ESE 03:04:09 33° ESE 03:06:41 10° E visible
11 Aug 6.7 04:40:25 15° W 04:43:25 76° N 04:47:16 10° ENE visible
12 Aug 7.2 03:08:07 46° ESE 03:08:07 46° ESE 03:11:03 10° ENE visible
12 Aug 6.8 04:44:23 12° W 04:47:47 70° N 04:51:37 10° E visible
